| time (UTC) | temp C | wind direction | speed KPH | gust KPH | rain 1hr cm | rain 24hr cm | rain mn cm | humidity % | barometer mb |
| 20260502130416 | 12 | 295 | 0.0 | 0.0 | 0.00 | 0.00 | 0.00 | 91 | 1008.5 |
| 20260502123357 | 12 | 295 | 0.0 | 0.0 | 0.00 | 0.00 | 0.00 | 91 | 1008.3 |
| 20260502122858 | 12 | 295 | 0.0 | 3.2 | 0.00 | 0.00 | 0.00 | 91 | 1008.2 |
| 20260502122356 | 12 | 295 | 0.0 | 3.2 | 0.00 | 0.00 | 0.00 | 91 | 1008.2 |
| 20260502121858 | 12 | 295 | 0.0 | 1.6 | 0.00 | 0.00 | 0.00 | 91 | 1008.2 |
| 20260502121356 | 12 | 295 | 0.0 | 1.6 | 0.00 | 0.00 | 0.00 | 91 | 1007.9 |
| 20260502120350 | 12 | 295 | 0.0 | 0.0 | 0.00 | 0.00 | 0.00 | 91 | 1007.9 |
| 20260502115846 | 12 | 295 | 0.0 | 0.0 | 0.00 | 0.00 | 0.00 | 91 | 1007.9 |
| 20260502115343 | 12 | 295 | 0.0 | 0.0 | 0.00 | 0.00 | 0.00 | 91 | 1007.9 |
| 20260502114845 | 12 | 295 | 0.0 | 0.0 | 0.00 | 0.00 | 0.00 | 91 | 1007.9 |
| 20260502113841 | 12 | 295 | 0.0 | 0.0 | 0.00 | 0.00 | 0.00 | 91 | 1007.9 |
| 20260502112835 | 12 | 295 | 0.0 | 3.2 | 0.00 | 0.00 | 0.00 | 90 | 1008.0 |
| 20260502112331 | 12 | 295 | 0.0 | 3.2 | 0.00 | 0.00 | 0.00 | 90 | 1008.0 |
| 20260502111835 | 12 | 295 | 0.0 | 3.2 | 0.00 | 0.00 | 0.00 | 90 | 1008.0 |
| 20260502111330 | 12 | 295 | 0.0 | 3.2 | 0.00 | 0.00 | 0.00 | 90 | 1008.0 |
| 20260502110826 | 12 | 295 | 0.0 | 3.2 | 0.00 | 0.00 | 0.00 | 90 | 1008.0 |
| 20260502110324 | 12 | 295 | 0.0 | 1.6 | 0.00 | 0.00 | 0.00 | 91 | 1008.0 |
| 20260502105822 | 12 | 295 | 0.0 | 1.6 | 0.00 | 0.00 | 0.00 | 90 | 1008.1 |
| 20260502105319 | 12 | 295 | 0.0 | 1.6 | 0.00 | 0.00 | 0.00 | 91 | 1008.1 |
| 20260502104822 | 12 | 295 | 0.0 | 1.6 | 0.00 | 0.00 | 0.00 | 90 | 1008.1 |
| 20260502104318 | 12 | 295 | 0.0 | 3.2 | 0.00 | 0.00 | 0.00 | 90 | 1007.9 |
| 20260502103808 | 12 | 295 | 0.0 | 3.2 | 0.00 | 0.00 | 0.00 | 90 | 1007.9 |
| 20260502103308 | 12 | 295 | 0.0 | 0.0 | 0.00 | 0.00 | 0.00 | 90 | 1007.9 |
| 20260502102310 | 12 | 295 | 0.0 | 3.2 | 0.00 | 0.00 | 0.00 | 91 | 1007.9 |
| 20260502101814 | 12 | 295 | 0.0 | 3.2 | 0.00 | 0.00 | 0.00 | 91 | 1007.9 |
| 20260502101312 | 12 | 295 | 1.6 | 4.8 | 0.00 | 0.00 | 0.00 | 90 | 1007.7 |
| 20260502100807 | 12 | 295 | 1.6 | 4.8 | 0.00 | 0.00 | 0.00 | 90 | 1007.7 |
| 20260502100302 | 12 | 295 | 0.0 | 4.8 | 0.00 | 0.00 | 0.00 | 91 | 1007.7 |
| 20260502091239 | 12 | 295 | 1.6 | 6.4 | 0.00 | 0.00 | 0.00 | 90 | 1008.3 |
| 20260502090739 | 12 | 295 | 1.6 | 6.4 | 0.00 | 0.00 | 0.00 | 90 | 1008.3 |
| 20260502090237 | 12 | 295 | 0.0 | 3.2 | 0.00 | 0.00 | 0.00 | 90 | 1008.3 |
| 20260502071203 | 12 | 342 | 1.6 | 6.4 | 0.00 | 0.00 | 0.00 | 89 | 1009.0 |
| 20260502070157 | 12 | 343 | 1.6 | 4.8 | 0.00 | 0.00 | 0.00 | 89 | 1009.0 |
| 20260502065654 | 12 | 343 | 1.6 | 6.4 | 0.00 | 0.00 | 0.00 | 89 | 1009.0 |
| 20260502065151 | 12 | 343 | 3.2 | 8.0 | 0.00 | 0.00 | 0.00 | 89 | 1009.0 |
| 20260502064650 | 13 | 344 | 1.6 | 8.0 | 0.00 | 0.00 | 0.00 | 89 | 1009.0 |
| 20260502064150 | 13 | 349 | 3.2 | 6.4 | 0.00 | 0.00 | 0.00 | 89 | 1009.2 |
| 20260502063647 | 13 | 349 | 1.6 | 8.0 | 0.00 | 0.00 | 0.00 | 89 | 1009.2 |
| 20260502063145 | 13 | 351 | 3.2 | 8.0 | 0.00 | 0.00 | 0.00 | 89 | 1009.3 |
| 20260502062143 | 13 | 355 | 3.2 | 8.0 | 0.00 | 0.00 | 0.00 | 89 | 1009.4 |
| 20260502061645 | 13 | 355 | 3.2 | 8.0 | 0.00 | 0.00 | 0.00 | 89 | 1009.4 |
| 20260502061137 | 13 | 355 | 1.6 | 6.4 | 0.00 | 0.00 | 0.00 | 89 | 1009.6 |
| 20260502060636 | 13 | 355 | 1.6 | 4.8 | 0.00 | 0.00 | 0.00 | 89 | 1009.6 |
| 20260502060134 | 13 | 355 | 1.6 | 4.8 | 0.00 | 0.00 | 0.00 | 89 | 1009.6 |
| 20260502055630 | 13 | 355 | 1.6 | 8.0 | 0.00 | 0.00 | 0.00 | 89 | 1009.6 |
| 20260502055131 | 13 | 355 | 1.6 | 8.0 | 0.00 | 0.00 | 0.00 | 89 | 1009.6 |
| 20260502054625 | 13 | 299 | 1.6 | 4.8 | 0.00 | 0.00 | 0.00 | 89 | 1009.6 |
| 20260502054124 | 13 | 299 | 1.6 | 6.4 | 0.00 | 0.00 | 0.00 | 88 | 1009.6 |
| 20260502053624 | 13 | 299 | 3.2 | 6.4 | 0.00 | 0.00 | 0.00 | 88 | 1009.6 |
| 20260502053126 | 13 | 291 | 1.6 | 6.4 | 0.00 | 0.00 | 0.00 | 88 | 1009.6 |
| 20260502052619 | 13 | 290 | 1.6 | 6.4 | 0.00 | 0.00 | 0.00 | 88 | 1009.6 |
| 20260502052116 | 13 | 290 | 1.6 | 6.4 | 0.00 | 0.00 | 0.00 | 88 | 1009.6 |
| 20260502051619 | 13 | 289 | 1.6 | 6.4 | 0.00 | 0.00 | 0.00 | 88 | 1009.6 |
| 20260502051119 | 13 | 284 | 1.6 | 9.7 | 0.00 | 0.00 | 0.00 | 88 | 1009.6 |
| 20260502050612 | 13 | 282 | 1.6 | 9.7 | 0.00 | 0.00 | 0.00 | 88 | 1009.6 |
| 20260502050112 | 13 | 327 | 3.2 | 8.0 | 0.00 | 0.00 | 0.00 | 88 | 1009.6 |
| 20260502045613 | 13 | 327 | 3.2 | 8.0 | 0.00 | 0.00 | 0.00 | 88 | 1009.6 |
| 20260502045110 | 13 | 328 | 3.2 | 8.0 | 0.00 | 0.00 | 0.00 | 88 | 1009.6 |
| 20260502044610 | 13 | 329 | 1.6 | 8.0 | 0.00 | 0.00 | 0.00 | 87 | 1009.6 |
| 20260502044110 | 13 | 330 | 1.6 | 8.0 | 0.00 | 0.00 | 0.00 | 87 | 1009.6 |
| 20260502043608 | 13 | 330 | 1.6 | 6.4 | 0.00 | 0.00 | 0.00 | 87 | 1009.6 |
| 20260502043110 | 13 | 331 | 1.6 | 8.0 | 0.00 | 0.00 | 0.00 | 87 | 1009.6 |
| 20260502042612 | 13 | 331 | 3.2 | 8.0 | 0.00 | 0.00 | 0.00 | 87 | 1009.6 |
| 20260502042108 | 13 | 331 | 3.2 | 8.0 | 0.00 | 0.00 | 0.00 | 87 | 1009.6 |
| 20260502041605 | 13 | 331 | 4.8 | 9.7 | 0.00 | 0.00 | 0.00 | 86 | 1009.6 |
| 20260502041104 | 13 | 331 | 3.2 | 9.7 | 0.00 | 0.00 | 0.00 | 86 | 1009.4 |
| 20260502040107 | 13 | 331 | 1.6 | 8.0 | 0.00 | 0.00 | 0.00 | 86 | 1009.4 |
| 20260502035604 | 13 | 332 | 1.6 | 6.4 | 0.00 | 0.00 | 0.00 | 86 | 1009.1 |
| 20260502035105 | 13 | 332 | 3.2 | 8.0 | 0.00 | 0.00 | 0.00 | 86 | 1009.1 |
| 20260502034604 | 13 | 332 | 3.2 | 8.0 | 0.00 | 0.00 | 0.00 | 86 | 1009.1 |
| 20260502034103 | 13 | 332 | 3.2 | 9.7 | 0.00 | 0.00 | 0.00 | 86 | 1009.0 |
| 20260502033559 | 13 | 332 | 3.2 | 9.7 | 0.00 | 0.00 | 0.00 | 86 | 1009.0 |
| 20260502033059 | 13 | 332 | 3.2 | 9.7 | 0.00 | 0.00 | 0.00 | 86 | 1009.0 |
| 20260502032557 | 13 | 332 | 3.2 | 9.7 | 0.00 | 0.00 | 0.00 | 85 | 1008.6 |
| 20260502032056 | 13 | 333 | 3.2 | 9.7 | 0.00 | 0.00 | 0.00 | 86 | 1008.6 |
| 20260502031556 | 13 | 335 | 3.2 | 9.7 | 0.00 | 0.00 | 0.00 | 85 | 1008.6 |
| 20260502031051 | 13 | 333 | 3.2 | 9.7 | 0.00 | 0.00 | 0.00 | 85 | 1008.5 |
| 20260502030549 | 13 | 334 | 4.8 | 9.7 | 0.00 | 0.00 | 0.00 | 85 | 1008.5 |
| 20260502030046 | 13 | 334 | 4.8 | 9.7 | 0.00 | 0.00 | 0.00 | 85 | 1008.5 |
| 20260502025550 | 13 | 333 | 3.2 | 9.7 | 0.00 | 0.00 | 0.00 | 85 | 1008.5 |
| 20260502024539 | 13 | 329 | 4.8 | 9.7 | 0.00 | 0.00 | 0.00 | 84 | 1008.5 |
| 20260502024038 | 14 | 329 | 3.2 | 9.7 | 0.00 | 0.00 | 0.00 | 84 | 1008.4 |
| 20260502023031 | 14 | 323 | 3.2 | 11.3 | 0.00 | 0.00 | 0.00 | 83 | 1008.4 |
| 20260502022530 | 14 | 323 | 4.8 | 11.3 | 0.00 | 0.00 | 0.00 | 82 | 1008.2 |
| 20260502022030 | 14 | 355 | 3.2 | 11.3 | 0.00 | 0.00 | 0.00 | 82 | 1008.2 |
| 20260502021526 | 14 | 330 | 4.8 | 9.7 | 0.00 | 0.00 | 0.00 | 81 | 1008.2 |
| 20260502021025 | 15 | 330 | 4.8 | 9.7 | 0.00 | 0.00 | 0.00 | 80 | 1008.0 |
| 20260502015518 | 15 | 335 | 6.4 | 12.9 | 0.00 | 0.00 | 0.00 | 78 | 1008.0 |
| 20260502015012 | 16 | 329 | 4.8 | 12.9 | 0.00 | 0.00 | 0.00 | 77 | 1008.0 |
| 20260502014508 | 16 | 326 | 4.8 | 11.3 | 0.00 | 0.00 | 0.00 | 77 | 1008.0 |
| 20260502014011 | 16 | 348 | 6.4 | 12.9 | 0.00 | 0.00 | 0.00 | 76 | 1008.0 |
| 20260502013509 | 16 | 339 | 6.4 | 12.9 | 0.00 | 0.00 | 0.00 | 76 | 1008.0 |
| 20260502013010 | 16 | 325 | 6.4 | 14.5 | 0.00 | 0.00 | 0.00 | 76 | 1008.0 |
| 20260502012507 | 16 | 24 | 6.4 | 14.5 | 0.00 | 0.00 | 0.00 | 75 | 1008.0 |
| 20260502012006 | 17 | 319 | 4.8 | 12.9 | 0.00 | 0.00 | 0.00 | 74 | 1008.0 |
| 20260502011506 | 17 | 335 | 6.4 | 12.9 | 0.00 | 0.00 | 0.00 | 74 | 1008.1 |
| 20260502011008 | 17 | 20 | 6.4 | 14.5 | 0.00 | 0.00 | 0.00 | 73 | 1008.0 |
| 20260502010501 | 17 | 319 | 6.4 | 14.5 | 0.00 | 0.00 | 0.00 | 72 | 1008.0 |
| 20260502005448 | 17 | 331 | 4.8 | 11.3 | 0.00 | 0.00 | 0.00 | 72 | 1008.9 |
| 20260502004944 | 18 | 346 | 6.4 | 16.1 | 0.00 | 0.00 | 0.00 | 72 | 1008.9 |
| 20260502003941 | 18 | 308 | 6.4 | 16.1 | 0.00 | 0.00 | 0.00 | 71 | 1008.0 |
| 20260502003439 | 18 | 325 | 8.0 | 16.1 | 0.00 | 0.00 | 0.00 | 71 | 1008.0 |
| 20260502002938 | 18 | 329 | 6.4 | 14.5 | 0.00 | 0.00 | 0.00 | 70 | 1008.0 |
| 20260502002436 | 18 | 319 | 6.4 | 12.9 | 0.00 | 0.00 | 0.00 | 69 | 1007.9 |
| 20260502001429 | 19 | 329 | 4.8 | 14.5 | 0.00 | 0.00 | 0.00 | 69 | 1007.9 |
| 20260502000926 | 19 | 314 | 4.8 | 14.5 | 0.00 | 0.00 | 0.00 | 69 | 1008.0 |
| 20260502000426 | 19 | 320 | 6.4 | 16.1 | 0.00 | 0.00 | 0.00 | 69 | 1008.0 |
| 20260501235927 | 19 | 322 | 6.4 | 19.3 | 0.00 | 0.00 | 0.00 | 69 | 1008.0 |
| 20260501235423 | 19 | 339 | 6.4 | 19.3 | 0.00 | 0.00 | 0.00 | 68 | 1008.0 |
| 20260501234920 | 19 | 320 | 8.0 | 14.5 | 0.00 | 0.00 | 0.00 | 69 | 1008.0 |
| 20260501234418 | 19 | 322 | 8.0 | 14.5 | 0.00 | 0.00 | 0.00 | 69 | 1008.0 |
| 20260501233919 | 19 | 318 | 8.0 | 14.5 | 0.00 | 0.00 | 0.00 | 69 | 1008.0 |
| 20260501233416 | 19 | 343 | 8.0 | 17.7 | 0.00 | 0.00 | 0.00 | 68 | 1008.0 |
| 20260501232415 | 20 | 333 | 6.4 | 14.5 | 0.00 | 0.00 | 0.00 | 66 | 1008.0 |
| 20260501231914 | 20 | 334 | 6.4 | 12.9 | 0.00 | 0.00 | 0.00 | 65 | 1008.0 |
| 20260501231418 | 21 | 328 | 4.8 | 11.3 | 0.00 | 0.00 | 0.00 | 66 | 1008.0 |
| 20260501230912 | 20 | 276 | 6.4 | 11.3 | 0.00 | 0.00 | 0.00 | 66 | 1008.0 |
| 20260501230411 | 21 | 285 | 4.8 | 11.3 | 0.00 | 0.00 | 0.00 | 65 | 1008.0 |
| 20260501225911 | 20 | 340 | 4.8 | 11.3 | 0.00 | 0.00 | 0.00 | 67 | 1008.0 |
| 20260501225409 | 20 | 267 | 4.8 | 11.3 | 0.00 | 0.00 | 0.00 | 67 | 1008.1 |
| 20260501224410 | 20 | 319 | 6.4 | 12.9 | 0.00 | 0.00 | 0.00 | 69 | 1008.1 |
| 20260501223407 | 20 | 318 | 6.4 | 12.9 | 0.00 | 0.00 | 0.00 | 68 | 1008.4 |
| 20260501222913 | 20 | 281 | 4.8 | 16.1 | 0.00 | 0.00 | 0.00 | 66 | 1008.4 |
| 20260501222409 | 21 | 272 | 4.8 | 16.1 | 0.00 | 0.00 | 0.00 | 65 | 1008.6 |
| 20260501220900 | 21 | 311 | 4.8 | 11.3 | 0.00 | 0.00 | 0.00 | 65 | 1008.7 |
| 20260501220400 | 21 | 298 | 6.4 | 12.9 | 0.00 | 0.00 | 0.00 | 66 | 1008.7 |
| 20260501215354 | 21 | 323 | 8.0 | 16.1 | 0.00 | 0.00 | 0.00 | 66 | 1008.7 |
| 20260501214854 | 20 | 294 | 8.0 | 16.1 | 0.00 | 0.00 | 0.00 | 66 | 1008.7 |
| 20260501214354 | 21 | 335 | 6.4 | 14.5 | 0.00 | 0.00 | 0.00 | 65 | 1008.7 |
| 20260501213344 | 20 | 317 | 6.4 | 16.1 | 0.00 | 0.00 | 0.00 | 66 | 1008.7 |
| 20260501212844 | 21 | 320 | 6.4 | 12.9 | 0.00 | 0.00 | 0.00 | 65 | 1008.6 |
| 20260501212344 | 21 | 331 | 6.4 | 12.9 | 0.00 | 0.00 | 0.00 | 64 | 1008.6 |
| 20260501211846 | 21 | 324 | 6.4 | 14.5 | 0.00 | 0.00 | 0.00 | 64 | 1008.6 |
| 20260501211337 | 21 | 341 | 6.4 | 14.5 | 0.00 | 0.00 | 0.00 | 66 | 1008.7 |
| 20260501210837 | 21 | 5 | 6.4 | 14.5 | 0.00 | 0.00 | 0.00 | 64 | 1008.7 |
| 20260501205836 | 21 | 5 | 6.4 | 16.1 | 0.00 | 0.00 | 0.00 | 64 | 1008.7 |
| 20260501205340 | 21 | 311 | 6.4 | 14.5 | 0.00 | 0.00 | 0.00 | 65 | 1008.7 |
| 20260501204332 | 21 | 313 | 6.4 | 12.9 | 0.00 | 0.00 | 0.00 | 67 | 1008.7 |
| 20260501203831 | 21 | 322 | 6.4 | 12.9 | 0.00 | 0.00 | 0.00 | 66 | 1008.7 |
| 20260501202828 | 21 | 309 | 4.8 | 12.9 | 0.00 | 0.00 | 0.00 | 67 | 1008.6 |
| 20260501202328 | 21 | 263 | 6.4 | 12.9 | 0.00 | 0.00 | 0.00 | 65 | 1008.6 |
| 20260501201826 | 22 | 333 | 4.8 | 12.9 | 0.00 | 0.00 | 0.00 | 63 | 1008.7 |
| 20260501200824 | 22 | 321 | 4.8 | 14.5 | 0.00 | 0.00 | 0.00 | 62 | 1009.0 |
| 20260501200324 | 22 | 341 | 4.8 | 11.3 | 0.00 | 0.00 | 0.00 | 63 | 1009.0 |
| 20260501195819 | 22 | 336 | 4.8 | 11.3 | 0.00 | 0.00 | 0.00 | 64 | 1009.2 |
| 20260501195316 | 22 | 0 | 4.8 | 11.3 | 0.00 | 0.00 | 0.00 | 65 | 1009.2 |
| 20260501194815 | 21 | 5 | 4.8 | 12.9 | 0.00 | 0.00 | 0.00 | 67 | 1009.1 |
| 20260501194316 | 21 | 5 | 4.8 | 12.9 | 0.00 | 0.00 | 0.00 | 69 | 1009.2 |
| 20260501193811 | 21 | 53 | 3.2 | 11.3 | 0.00 | 0.00 | 0.00 | 68 | 1009.2 |
| 20260501193309 | 20 | 123 | 1.6 | 8.0 | 0.00 | 0.00 | 0.00 | 69 | 1009.2 |
| 20260501192308 | 20 | 37 | 4.8 | 11.3 | 0.00 | 0.00 | 0.00 | 69 | 1009.5 |
| 20260501191813 | 20 | 209 | 4.8 | 11.3 | 0.00 | 0.00 | 0.00 | 69 | 1009.5 |
| 20260501191306 | 20 | 64 | 4.8 | 11.3 | 0.00 | 0.00 | 0.00 | 70 | 1009.7 |
| 20260501190300 | 19 | 123 | 1.6 | 6.4 | 0.00 | 0.00 | 0.00 | 72 | 1009.7 |
| 20260501185801 | 18 | 148 | 3.2 | 8.0 | 0.00 | 0.00 | 0.00 | 74 | 1009.8 |
| 20260501185257 | 18 | 165 | 1.6 | 8.0 | 0.00 | 0.00 | 0.00 | 74 | 1009.8 |
| 20260501184751 | 18 | 136 | 1.6 | 12.9 | 0.00 | 0.00 | 0.00 | 75 | 1009.8 |
| 20260501184249 | 18 | 137 | 3.2 | 12.9 | 0.00 | 0.00 | 0.00 | 74 | 1009.8 |
| 20260501183748 | 18 | 136 | 4.8 | 11.3 | 0.00 | 0.00 | 0.00 | 73 | 1009.8 |
| 20260501183247 | 18 | 130 | 6.4 | 14.5 | 0.00 | 0.00 | 0.00 | 74 | 1009.8 |
| 20260501182747 | 18 | 134 | 6.4 | 14.5 | 0.00 | 0.00 | 0.00 | 73 | 1009.8 |
| 20260501182245 | 18 | 74 | 3.2 | 12.9 | 0.00 | 0.00 | 0.00 | 76 | 1009.8 |
| 20260501181749 | 18 | 130 | 4.8 | 11.3 | 0.00 | 0.00 | 0.00 | 75 | 1009.8 |
| 20260501181246 | 17 | 44 | 4.8 | 12.9 | 0.00 | 0.00 | 0.00 | 78 | 1009.8 |
| 20260501180742 | 17 | 53 | 3.2 | 14.5 | 0.00 | 0.00 | 0.00 | 79 | 1009.8 |
| 20260501175236 | 15 | 84 | 4.8 | 11.3 | 0.00 | 0.00 | 0.00 | 84 | 1010.1 |
| 20260501174731 | 15 | 103 | 3.2 | 9.7 | 0.00 | 0.00 | 0.00 | 84 | 1010.1 |
| 20260501174232 | 15 | 139 | 1.6 | 9.7 | 0.00 | 0.00 | 0.00 | 85 | 1010.2 |
| 20260501173729 | 15 | 109 | 0.0 | 4.8 | 0.00 | 0.00 | 0.00 | 87 | 1010.2 |
| 20260501173224 | 14 | 111 | 0.0 | 0.0 | 0.00 | 0.00 | 0.00 | 89 | 1010.2 |
| 20260501172720 | 13 | 117 | 0.0 | 4.8 | 0.00 | 0.00 | 0.00 | 90 | 1010.2 |
| 20260501171717 | 13 | 45 | 0.0 | 4.8 | 0.00 | 0.00 | 0.00 | 91 | 1010.2 |
| 20260501171214 | 13 | 45 | 0.0 | 4.8 | 0.00 | 0.00 | 0.00 | 91 | 1010.2 |
| 20260501170711 | 13 | 332 | 0.0 | 0.0 | 0.00 | 0.00 | 0.00 | 92 | 1010.2 |
| 20260501170210 | 13 | 332 | 0.0 | 0.0 | 0.00 | 0.00 | 0.00 | 92 | 1010.2 |
| 20260501165206 | 12 | 332 | 0.0 | 0.0 | 0.00 | 0.00 | 0.00 | 93 | 1010.2 |
| 20260501164704 | 12 | 332 | 0.0 | 1.6 | 0.00 | 0.00 | 0.00 | 94 | 1010.2 |
| 20260501163701 | 12 | 332 | 0.0 | 0.0 | 0.00 | 0.00 | 0.00 | 94 | 1010.3 |
| 20260501163159 | 12 | 332 | 0.0 | 0.0 | 0.00 | 0.00 | 0.00 | 94 | 1010.3 |
| 20260501162701 | 12 | 332 | 0.0 | 0.0 | 0.00 | 0.00 | 0.00 | 94 | 1010.2 |
| 20260501161157 | 12 | 332 | 0.0 | 0.0 | 0.00 | 0.00 | 0.00 | 95 | 1010.1 |
| 20260501160656 | 12 | 332 | 0.0 | 0.0 | 0.00 | 0.00 | 0.00 | 95 | 1010.1 |
| 20260501160157 | 12 | 332 | 0.0 | 1.6 | 0.00 | 0.00 | 0.00 | 95 | 1010.1 |
| 20260501155652 | 12 | 332 | 0.0 | 1.6 | 0.00 | 0.00 | 0.00 | 95 | 1010.1 |
| 20260501155150 | 11 | 332 | 0.0 | 1.6 | 0.00 | 0.00 | 0.00 | 95 | 1010.1 |
| 20260501154150 | 11 | 332 | 0.0 | 1.6 | 0.00 | 0.00 | 0.00 | 95 | 1010.1 |
| 20260501153140 | 11 | 332 | 0.0 | 0.0 | 0.00 | 0.00 | 0.00 | 95 | 1010.1 |
| 20260501152640 | 11 | 332 | 0.0 | 0.0 | 0.00 | 0.00 | 0.00 | 95 | 1010.0 |
| 20260501152140 | 11 | 332 | 0.0 | 0.0 | 0.00 | 0.00 | 0.00 | 95 | 1010.0 |
| 20260501151636 | 11 | 332 | 0.0 | 0.0 | 0.00 | 0.00 | 0.00 | 95 | 1010.0 |
| 20260501151135 | 11 | 332 | 0.0 | 0.0 | 0.00 | 0.00 | 0.00 | 96 | 1009.7 |
| 20260501145627 | 11 | 332 | 0.0 | 0.0 | 0.00 | 0.00 | 0.00 | 96 | 1009.6 |
| 20260501145126 | 11 | 332 | 0.0 | 0.0 | 0.00 | 0.00 | 0.00 | 95 | 1009.6 |
| 20260501143614 | 11 | 332 | 0.0 | 0.0 | 0.00 | 0.00 | 0.00 | 95 | 1009.5 |
| 20260501143113 | 11 | 332 | 0.0 | 0.0 | 0.00 | 0.00 | 0.00 | 95 | 1009.5 |
| 20260501142607 | 11 | 332 | 0.0 | 0.0 | 0.00 | 0.00 | 0.00 | 95 | 1009.5 |